www.pogodaiklimat.ru

Погода и климат >> Архив погоды >> Россия >> Красноярский край >> Норильск


АРХИВ ПОГОДЫ в Норильске

Время (UTC), дата Ветер
(напр.,м/с)
 
Видим.   Явления Облачность Т
(С)
Тd
(С)
f
(%)
Тe
(С)
Тes
(С)
Комфортность P
(гПа)
Po
(гПа)
Тmin
(С)
Tmax
(С)
R
(мм)
R24
(мм)
S
(см)
06 13.09 С 5
{10}
20 км 4/3 600 м
[Sc Ac lent Ci fib]
+2.9 -1.3 74 -2 -1 прохладно 1008.5 1000.5
09 13.09 С 8-12
{13}
20 км 4/0 2000 м
[Ac trans Ci fib]
+3.2 -0.3 78 -3 -3 холодно 1008.7 1000.7
12 13.09 С 6-10
{14}
20 км 3/0 2000 м
[Ac trans Ci fib]
+2.4 -1.5 75 -3 -3 холодно 1009.4 1001.3 +3.4
15 13.09 З 3 20 км 3/0 2000 м
[Ac trans Ci fib]
+1.1 -1.5 83 -3 -3 прохладно 1009.0 1000.9
18 13.09 З 3 20 км 6/3 600 м
[Sc Ac trans]
+0.6 -1.9 83 -4 -4 прохладно 1009.0 1000.9
21 13.09 З 4 20 км 8/3 600 м
[Sc Ac trans]
+0.6 -1.6 85 -5 -5 прохладно 1009.0 1000.9
00 14.09 З 3 50 км 10/4 600 м
[Sc Ac und]
+0.3 -1.5 88 -4 -4 по сезону 1009.0 1000.9 +0.1 0
03 14.09 З 4 50 км 10/6 600 м
[Sc Ac und]
+1.2 -0.5 88 -4 -4 прохладно 1009.2 1001.1
06 14.09 З 5 50 км 10/8 600 м
[Sc Ac und]
+1.7 -0.8 83 -4 -4 холодно 1009.2 1001.1
09 14.09 СЗ 3 50 км 10/8 600 м
[Sc Ac und]
+2.5 -0.2 82 -2 -1 прохладно 1009.7 1001.6
12 14.09 С 5 50 км 9/6 600 м
[Sc Ac trans]
+2.1 -1.0 80 -3 -3 холодно 1010.1 1002.0 +2.7
15 14.09 СЗ 4 20 км 6/3 600 м
[Sc Ac lent]
+0.8 -0.6 90 -5 -5 холодно 1010.1 1002.0
18 14.09 З 3 20 км 3/1 600 м
[Sc Ac trans]
+0.3 -1.1 90 -4 -4 прохладно 1009.9 1001.8
21 14.09 СЗ 4 20 км 4/3 600 м
[Sc Ac trans]
-0.2 -0.8 96 -6 -6 прохладно 1009.7 1001.6
00 15.09 З 4 20 км 4/3 600 м
[Sc Ac trans]
-1.8 -2.6 94 -8 -8 холодно 1010.4 1002.2 -1.9 0
03 15.09 СЗ 4 20 км 9/8 600 м
[Sc Ac trans]
-1.1 -3.7 82 -7 -7 холодно 1010.6 1002.4
06 15.09 З 3 20 км {снег} 9/6 600 м
[Sc Ac trans]
-0.3 -2.7 84 -5 -4 холодно 1011.0 1002.9
09 15.09 З 3 20 км 9/6 600 м
[Sc Ac trans Ci fib]
+0.9 -2.0 81 -4 -3 холодно 1012.0 1003.9
12 15.09 З 3 50 км 3/0 2000 м
[Ac trans]
+1.1 -2.4 77 -3 -3 холодно 1012.6 1004.5 +1.5 0.0
15 15.09 З 1 20 км ясно +0.7 -2.2 81 -1 -1 по сезону 1012.8 1004.7
18 15.09 штиль 0 20 км ясно -1.3 -3.0 88 -2 -2 по сезону 1013.4 1005.2
21 15.09 штиль 0 500 м туман ясно -2.2 -2.2 100 -4 -4 прохладно 1013.7 1005.5
00 16.09 штиль 0 500 м туман ясно -4.2 -4.4 99 -5 -5 прохладно 1013.8 1005.5 -4.4 0
03 16.09 ЮВ 2 2000 м дымка {туман} 3/0
[Ci fib]
-1.6 -1.8 99 -6 -4 холодно 1012.9 1004.8
06 16.09 ЮВ 3 20 км {туман} 8/0
[Ci]
+1.8 -1.9 76 -2 -0 прохладно 1012.6 1004.5
09 16.09 ЮВ 4 20 км 10/5 600 м
[Sc Ac trans Cs]
+3.2 -1.9 69 -1 -1 прохладно 1011.4 1003.4
12 16.09 ЮЗ 2 50 км 10/0 2000 м
[Ac trans Cs]
+3.2 -1.5 71 +1 +1 по сезону 1009.5 1001.5 +4.0
15 16.09 ЮВ 5 20 км 10/0 2000 м
[Ac und]
+1.9 -2.5 73 -3 -3 прохладно 1008.8 1000.7
18 16.09 ЮВ 4 20 км 10/0 2000 м
[Ac trans Cs]
+1.0 -2.5 77 -4 -4 прохладно 1007.4 999.3
21 16.09 ЮВ 8-10
{12}
10 км слаб. ливневой дождь со снегом 10/10 600 м
[Cb cap]
+1.0 +0.2 94 -6 -6 прохладно 1005.3 997.2
00 17.09 В 9-13
{15}
20 км {ливн. осадки} 10/8 600 м
[Sc Ac und]
+2.5 +0.4 86 -5 -5 по сезону 1004.2 996.1 +0.8 0.5 0
03 17.09 ЮВ 7-11
{13}
20 км 9/6 600 м
[Sc Ac As]
+3.8 +0.4 78 -2 -2 по сезону 1003.4 995.4
06 17.09 ЮВ 10-14
{15}
10 км слаб. ливневой дождь 10/10 600 м
[Cb cap]
+4.4 +1.6 82 -2 -2 прохладно 1002.3 994.4
09 17.09 ЮВ 10-15
{15}
10 км слаб. дождь 10/10 600 м
[Sc]
+4.9 +3.0 87 -2 -2 прохладно 1001.2 993.3
12 17.09 В 10-15
{16}
20 км в посл. час дождь {ливн. осадки} 10/8 600 м
[Sc Ac und]
+5.5 +3.8 89 -1 -1 по сезону 999.9 992.1 +5.5 3
15 17.09 ЮВ 10-15
{15}
10 км слаб. ливневой дождь 10/6 600 м
[Cb cap Ac As]
+6.6 +4.3 85 +1 +1 по сезону 999.1 991.3
18 17.09 ЮВ 8-12
{15}
10 км слаб. ливневой дождь 8/5 600 м
[Cb cap Ac und]
+7.2 +4.4 82 +2 +2 по сезону 999.2 991.4
21 17.09 ЮВ 8-12
{13}
20 км в посл. час ливневой дождь 10/8 600 м
[Cb cap Ac As]
+7.4 +5.6 88 +2 +2 по сезону 998.1 990.4
00 18.09 В 7-12
{13}
10 км в посл. час ливневой дождь 10/8 600 м
[Cb cap Ac As]
+7.5 +6.2 91 +3 +3 тепло 997.1 989.4 +5.4 2
03 18.09 ЮВ 8-11
{14}
50 км в посл. час ливневой дождь 10/6 600 м
[Sc Ac und]
+9.2 +7.1 87 +5 +5 тепло 996.3 988.6
06 18.09 ЮВ 10-10
{15}
50 км {ливн. осадки} 10/8 600 м
[Sc Ac und]
+9.9 +6.0 77 +5 +5 тепло 996.9 989.2
09 18.09 ЮВ 10-10
{15}
20 км 10/8 600 м
[Sc Ac und]
+9.8 +6.4 79 +5 +5 тепло 997.4 989.7
12 18.09 ЮВ 6-10
{15}
20 км 10/8 600 м
[Sc Ac und]
+8.9 +5.4 79 +5 +5 тепло 998.9 991.2 +10.0 0.3
15 18.09 ЮВ 6
{12}
20 км 10/5 600 м
[Sc Ac und]
+7.9 +5.2 83 +4 +4 тепло 1000.6 992.8
18 18.09 ЮЗ 4
{12}
10 км слаб. ливневой дождь 10/10 600 м
[Cb cap]
+5.5 +2.8 83 +2 +2 по сезону 1004.2 996.3
21 18.09 Ю 3
{10}
10 км слаб. ливневой дождь 10/10 600 м
[Cb cap]
+5.3 +2.9 84 +2 +2 по сезону 1006.2 998.3
00 19.09 В 2 50 км {ливн. осадки} 9/6 600 м
[Sc Ac As]
+5.8 +3.7 86 +3 +3 тепло 1007.3 999.4 +4.8 0.0
03 19.09 ЮВ 5 50 км 8/5 600 м
[Sc Ac trans]
+5.6 +3.7 88 +1 +1 по сезону 1007.4 999.5
06 19.09 ЮВ 5 50 км 9/6 600 м
[Cu Sc Ac trans]
+7.8 +3.9 76 +4 +4 по сезону 1006.8 998.9
09 19.09 ЮВ 7
{11}
50 км 5/3 600 м
[Cu Sc Ac lent]
+9.3 +3.6 68 +6 +6 тепло 1005.5 997.7
12 19.09 ЮВ 3
{10}
50 км 4/0 2000 м
[Ac lent Ci fib]
+7.1 +2.5 73 +4 +4 по сезону 1004.0 996.1 +9.6
15 19.09 В 2 20 км 4/3 600 м
[Sc Ac As]
+4.6 +1.3 79 +2 +2 по сезону 1002.2 994.2
18 19.09 ЮВ 4 20 км 6/3 600 м
[Sc Ac trans]
+5.4 +1.6 76 +2 +2 по сезону 999.5 991.6
21 19.09 Ю 2 20 км 8/3 600 м
[Sc Ac trans]
+5.3 +0.7 72 +3 +3 тепло 996.7 988.9
00 20.09 Ю 2 50 км 10/3 600 м
[Sc Ac und]
+5.6 +0.5 70 +3 +3 тепло 994.3 986.5 +4.3
03 20.09 штиль 0 50 км 9/4 600 м
[Sc Ac trans]
+6.9 +2.6 74 +6 +7 тепло 992.5 984.7

 

Местоположение метеостанции Норильск (Красноярский край, Россия): широта 69.33 долгота 88.30 высота над уровнем моря 65 м.

В архиве по умолчанию представлена погода в Норильске за последнюю неделю. Архивные данные за месяц целиком и за предыдущие месяцы, начиная с января 2011 года, Вы можете получить, выбрав интересующий диапазон дат из раскрывающегося списка и нажав кнопку "Ввод!".


*Определитесь, кто Вы:
робот инопланетянин человек

Внимание! Время в таблицах - всемирное. Для получения местного времени необходимо прибавить поправку, которая равна 7 ч.

Смотрите также архив погоды в соседних городах и на ближайших метеорологических станциях:

Погода в Потапово (Красноярский край, Россия) (110 км)
Погода в Снежногорске (Красноярский край, Россия) (138 км)
Погода в Крестах Таймырских (Красноярский край, Россия) (181 км)
Погода в Горбиачине (Красноярский край, Россия) (207 км)
Погода в Карауле (Красноярский край, Россия) (215 км)
Погода в Игарке (Красноярский край, Россия) (219 км)
Погода в Светлогорске (Красноярский край, Россия) (265 км)
Погода в Волочанке (Красноярский край, Россия) (297 км)
Погода в Курейке (Красноярский край, Россия) (321 км)
Погода в Советской Речке (Красноярский край, Россия) (336 км)

Пояснения к столбцам:

Ветер - указаны скорость ветра в м/с - средняя за 10 мин, порывы в срок и между сроками (в фигурных скобках) и направление, откуда дует ветер: С - северный, СВ - северо-восточный, В - восточный, ЮВ - юго-восточный, Ю - южный, ЮЗ - юго-западный, З - западный, СЗ - северо-западный.
Видимость - горизонтальная дальность видимости в метрах или километрах. При видимости от 1 до 10 км при отсутствии осадков обычно наблюдается дымка, при ухудшении видимости до 1 км и менее - туман. В сухую погоду видимость может ухудшаться дымом, пылью или мглою.
Явления - указаны атмосферные явления, наблюдавшиеся в срок или в последний час перед сроком; фигурными скобками обозначены явления, наблюдавшиеся между сроками (за 1-3 часа до срока); квадратными скобками обозначены град или гололедные отложения с указанием их диаметра в мм.
Облачность - указаны через наклонную черту общая и нижняя облачность в баллах и высота нижней границы облаков в метрах; квадратными скобками обозначены формы облаков: Ci - перистые, Cs - перисто-слоистые, Cc - перисто-кучевые, Ac - высококучевые, As - высокослоистые, Sc - слоисто-кучевые, Ns - слоисто-дождевые, Cu - кучевые, Cb - кучево-дождевые. Подробнее классификацию облаков см. в Атласе облаков (PDF).
T - Температура воздуха - температура, измеренная на высоте 2 м над землей.
Td - Температура точки росы - температура, при понижении до которой содержащийся в воздухе водяной пар достигнет насыщения.
f - Относительная влажность воздуха - влажноcть воздуха, измеренная на высоте 2 м над землей.
Te - Эффективная температура - температура, которую ощущает одетый по сезону человек в тени. Характеристика душности погоды. При расчете учитывается влияние влажности воздуха и скорости ветра на теплоощущения человека.
Tes - Эффективная температура на солнце - температура, которую ощущает человек, с поправкой на солнечный нагрев. Характеристика знойности погоды. Зависит от высоты солнца над горизонтом, облачности и скорости ветра. Ночью, в пасмурную погоду, а также при ветре 12 м/с и более поправка равна нулю.
P - Атмосферное давление - приведенное к уровню моря атмосферное давление.
Po - Атмосферное давление - измеренное на уровне метеостанции атмосферное давление.
Tmin - Минимальная температура - минимум температуры воздуха на высоте 2 м над землей.
Tmax - Максимальная температура - максимум температуры воздуха на высоте 2 м над землей.
R - Количество осадков - Количество выпавших осадков за период времени, мм. При наведении курсора мыши на число - период времени, за который выпало указанное количество осадков.
R24 - Количество осадков - Количество выпавших осадков за 24 часа, мм.
S - Снежный покров - Высота снежного покрова, см. При наведении курсора мыши на число - состояние снежного покрова и степень покрытия местности в баллах.